Find Tian Lian 1-01

NORAD ID: 32779 Int'l Des: 2008-019 Owner: CAST Country: CN operational
HEOCIRCULAR

リアルタイム位置

3D地球を読み込み中...

Tian Lian 1-01について

説明を読み込み中...

次回通過

Passes for default location (London). Set your location on the main map for personalized predictions.

高度履歴

Loading altitude history...

軌道要素

1 32779U 08019A 26131.83656286 -.00000021 00000-0 00000+0 0 9996
2 32779 10.0640 59.6607 0006937 245.1351 293.5103 0.97412559 15001
Epoch: May 11, 2026 • Age: 16 hours

現在のステータス

高度 36636.0 km
速度 3.04 km/s
衛星直下点 8.51°N, 60.11°E
打ち上げ日 Apr 25, 2008
運用期間 18 years
タイプ other

技術仕様

分類 Payload
質量 2475.00 kg
乾燥質量 1060.00 kg
総質量 2475.00 kg
長さ 6.00 m
直径 1.70 m
スパン 18.10 m
形状 Box + 2 Pan + Dish
製造者 CAST
バスタイプ DFH-3
フェーズステータス In Orbit
所有者/国 CAST/CN

Most Searched